Regional Weather Roundup
Issued by NWS Sterling, VA

Home | Current Version | Previous Version | Graphics & Text | Print | Product List | Glossary On
Versions: 1 2 3 4 5 6 7 8 9 10 11 12 13 14 15 16 17 18 19 20 21 22 23 24 25 26 27 28 29 30 31 32 33 34 35 36 37 38 39 40 41 42 43 44 45 46 47 48 49 50
000
ASUS41 KLWX 190210
RWRLWX

REGIONAL WEATHER ROUNDUP
NATIONAL WEATHER SERVICE BALTIMORE MD/WASHINGTON DC
900 PM EST WED JAN 18 2017

Note: "FAIR" indicates few or no clouds below 12,000 feet
with no significant weather and/or obstructions to visibility.
 TC=TEMPERATURE CELSIUS

 * =Non NWS site. Station does not report precipitation (e.g. rain,
    snow, etc.), thunder, or fog.

DCZ001-MDZ009-015-VAZ040>042-051-053>054-190300-
WASHINGTON METRO

CITY           SKY/WX    TMP DP  RH WIND       PRES   REMARKS
WASHINGTON NAT MOCLDY    49  36  61 NW15      30.09S
DULLES         PTCLDY    44  33  65 NW5       30.09S
ANDREWS AFB    CLOUDY    47  35  63 NW12      30.06S
FT BELVOIR     CLEAR     47  34  60 NW10G17   30.08S
QUANTICO       CLEAR     48  36  63 N12G22    30.10R
COLLEGE PARK*  CLOUDY    46  34  61 NW5       30.07F
LEESBURG*      CLOUDY    45  37  76 CALM      30.10S
MANASSAS*      CLEAR    N/A N/A N/A N12       30.10S
GAITHERSBURG*  CLOUDY    45  32  61 NW7       30.12S

$$

MDZ006>007-011-014-190300-
BALTIMORE METRO

CITY           SKY/WX    TMP DP  RH WIND       PRES   REMARKS
BWI AIRPORT    CLOUDY    47  37  68 NW9       30.07R
MD SCIENCE CTR   N/A     50  35  56 MISG      30.07R
MARTIN STATE   CLOUDY    50  43  76 NW5       30.08
ANNAPOLIS      CLOUDY    50  36  58 NW10      30.07R
FORT MEADE*    CLOUDY    46  36  66 NW5       30.10R

$$

MDZ012-015-019>023-190300-
MARYLAND EASTERN SHORE

CITY           SKY/WX    TMP DP  RH WIND       PRES   REMARKS
OCEAN CITY     NOT AVBL
SALISBURY      CLOUDY    50  40  68 N7        30.04S
BAY BRIDGE AP* CLOUDY    46  37  71 NW9       30.07R
CAMBRIDGE*     CLOUDY    46  41  81 CALM      30.06R
EASTON*        CLOUDY    50  39  66 N5        30.10R

$$

MDZ017>025-190300-
SOUTHERN MARYLAND

CITY           SKY/WX    TMP DP  RH WIND       PRES   REMARKS
PATUXENT RIVER MOCLDY    49  38  65 NW12      30.05R
ST INIGOES     PTCLDY    51  37  58 N3        30.05R
LEONARDTOWN*   PTCLDY    46  36  66 NW6       30.08R

$$

MDZ003>005-190300-
NORTH CENTRAL MARYLAND

CITY           SKY/WX    TMP DP  RH WIND       PRES   REMARKS
FREDERICK*     CLOUDY    43  36  75 CALM      30.11
HAGERSTOWN APT CLOUDY    44  34  67 NW12      30.07F
WESTMINSTER*   CLOUDY    43  36  75 W7        30.06S

$$

MDZ501>502-190300-
WESTERN MARYLAND

CITY           SKY/WX    TMP DP  RH WIND       PRES   REMARKS
OAKLAND*       FOG       32  32 100 W6        30.04F VSB 1/4
CUMBERLAND*    CLOUDY    43  34  70 CALM      30.14S

$$

VAZ025>031-190300-
SHENANDOAH VALLEY

CITY           SKY/WX    TMP DP  RH WIND       PRES   REMARKS
WINCHESTER*    CLOUDY    43  34  70 NW6       30.09S
FRONT ROYAL*   CLOUDY    43  34  70 CALM      30.08S
LURAY*         CLEAR     43  36  75 NE3       30.06S
NEW MARKET*    CLEAR     37  33  85 N3        30.06S
STAUNTON*      CLEAR     36  32  85 CALM      30.08R
WAYNESBORO*    CLEAR     42  33  70 CALM      30.06S

$$

WVZ021-048>050-054>055-190300-
EASTERN WEST VIRGINIA PANHANDLE

CITY           SKY/WX    TMP DP  RH WIND       PRES   REMARKS
MARTINSBURG    CLOUDY    45  34  65 NW6       30.09F
PETERSBURG*    CLEAR     36  33  90 CALM      30.10R

$$

VAZ036>039-050-190300-
CENTRAL FOOTHILLS

CITY           SKY/WX    TMP DP  RH WIND       PRES   REMARKS
CHARLOTTESVILL CLEAR     47  34  60 CALM      30.05S
CULPEPER*      CLEAR     44  36  74 NE5       30.09R
ORANGE*          N/A     45  36  70 CALM      30.08S
GORDONSVILLE*  CLEAR     42  37  80 NE5       30.06R
WARRENTON*     CLEAR     46  33  60 N9        30.07S

$$

VAZ055>057-190300-
NORTH AND CENTRAL PIEDMONT

CITY           SKY/WX    TMP DP  RH WIND       PRES   REMARKS
FREDERICKSBRG* CLEAR     47  38  68 N6        30.07S
STAFFORD*      CLEAR     46  36  68 N8        30.11F

$$

NCZ024-NYZ072-PAZ021-071-VAZ022-071-190300-
OTHER REGIONAL OBSERVATIONS

CITY           SKY/WX    TMP DP  RH WIND       PRES   REMARKS
NEW YORK CITY  CLOUDY    40  36  86 CALM      30.05R
PHILADELPHIA   CLOUDY    46  39  76 N3        30.05R
PITTSBURGH     CLOUDY    39  36  89 SW7       30.08F
ROANOKE        CLOUDY    45  36  70 NW8       30.10S
RICHMOND       CLEAR     48  38  68 N9        30.06R
RALEIGH        PTCLDY    53  34  48 NE5       30.05R

$$

ANZ530>537-190300-
MARINE OBSERVATIONS

STATION/POSITION TIME  TEMP    WIND        PRES
                       AIR SEA DIR/SP/G
                 (UTC) (F)     (DEG/KT/KT) (MB)
THOMAS PT LIGHT  0100   51 39  320/ 11/ 13   N/A
BALT KEY BRIDGE  0130   48     280/ 11/ 12 1018.2R
COVE POINT       0130   49     340/ 15/ 17 1018.3R
LEWISETTA        0130   50 42  330/  7/  8 1017.4R
SOLOMONS ISLAND  0130   50 42  320/  8/ 10   N/A
PINEY POINT      0130          360/ 11/ 13   N/A

$$




USA.gov is the U.S. government's official web portal to all federal, state and local government web resources and services.